Wind_Speed
10 11 11 10 9 10 11 12 12 11 13 13 12 15 18 17 16 18 21 21 21 22 21 22 23 24 25 25 25 23 21 20 18 17 22 25 22 19 18 18 19 20
9 9 10 10 9 9 10 11 11 12 13 13 11 12 16 19 18 17 19 21 22 24 24 23 23 23 24 24 24 22 21 20 19 17 20 23 22 21 20 20 20 18
9 8 8 8 9 9 10 12 12 12 12 12 10 10 13 17 18 16 18 20 22 23 23 23 23 21 20 20 22 24 21 18 18 18 19 21 21 20 19 20 21 18
9 7 7 8 8 8 9 10 11 11 11 11 11 11 12 15 16 17 18 20 22 23 23 23 23 22 21 19 19 22 22 19 18 17 18 20 20 18 17 19 21 19
11 9 8 7 8 8 9 10 10 10 11 12 13 13 13 13 14 17 19 19 21 23 24 24 25 25 25 23 21 21 19 18 17 16 19 19 17 18 18 18 20 20
13 12 10 8 8 8 9 9 9 10 11 12 12 13 12 13 14 16 18 18 19 23 25 25 24 24 25 25 23 21 18 16 17 18 19 17 15 17 17 16 19 20
15 14 12 10 9 9 9 9 9 10 11 12 12 13 13 13 14 14 16 17 18 21 25 25 24 24 25 23 20 20 19 16 17 19 19 15 14 17 17 17 20 19
18 16 14 13 10 8 9 9 9 9 10 12 12 13 12 12 13 13 14 15 17 20 23 25 25 25 24 23 22 21 19 16 17 21 20 16 15 18 19 20 20 17
20 19 17 16 13 10 10 10 10 10 10 12 13 13 12 13 14 14 14 15 16 21 25 26 26 25 23 24 24 23 20 18 18 19 20 19 17 18 19 20 20 17
22 21 20 18 16 14 13 12 12 11 12 12 12 12 12 12 15 16 15 15 17 21 26 27 27 26 24 23 23 22 21 21 20 19 20 21 20 19 19 20 20 17
22 22 21 21 20 18 16 15 14 13 13 12 12 12 12 11 14 16 15 16 18 21 26 28 27 26 24 23 22 21 22 22 21 21 22 21 19 19 20 21 20 18
21 20 20 20 21 21 19 17 17 15 14 13 13 13 12 12 14 16 16 17 19 21 25 28 28 26 24 24 23 21 21 22 22 22 21 20 19 19 19 21 21 18
21 21 21 21 21 22 20 19 18 17 15 15 14 14 14 13 14 16 17 18 18 19 23 28 29 27 25 25 24 22 22 22 22 21 21 20 20 19 19 19 20 19
21 21 22 23 22 22 21 20 18 17 16 16 15 14 14 14 14 16 17 18 18 18 21 28 30 27 27 26 24 23 22 22 22 21 21 20 19 18 18 19 19 19
21 20 21 22 23 24 25 23 20 18 17 16 16 16 16 15 15 18 18 19 19 18 21 28 29 28 28 27 25 24 23 23 22 21 20 19 17 16 17 18 18 16
21 20 21 23 23 24 26 26 22 20 18 17 17 18 18 16 16 18 19 20 20 18 21 28 29 28 28 27 25 24 23 23 22 21 19 18 19 18 15 14 15 13
21 21 23 24 23 23 24 26 25 21 18 18 17 19 20 18 17 19 20 21 20 18 23 29 29 27 28 26 24 23 22 22 22 20 19 19 19 19 16 14 14 14
22 22 24 24 24 24 23 25 26 23 19 17 17 19 21 20 20 22 22 22 21 21 26 30 28 27 28 26 24 23 21 21 21 20 20 20 19 20 19 17 16 16
22 22 24 25 25 24 23 23 24 24 22 20 18 17 17 19 22 24 23 21 23 25 28 28 27 27 28 27 25 22 20 20 20 20 20 20 20 20 20 19 18 17
22 23 23 25 25 24 23 22 21 21 21 21 19 16 13 11 14 20 22 21 21 24 25 26 26 26 27 27 25 22 20 20 20 20 20 20 20 21 20 19 19 19
22 23 24 25 25 24 23 23 21 20 20 20 19 16 12 8 5 9 15 17 18 20 21 21 22 24 25 26 24 22 21 20 20 19 20 20 21 22 21 21 20 20
21 22 23 24 25 25 24 23 22 21 20 18 17 16 13 9 6 2 4 9 12 16 17 16 15 17 21 22 22 22 22 21 20 19 19 20 21 22 22 22 21 20
20 21 22 23 24 25 25 24 22 21 19 18 17 17 16 14 11 8 5 3 7 9 10 10 10 12 15 17 20 22 22 22 21 20 20 20 21 22 23 22 21 20
19 20 20 22 23 23 23 23 22 20 19 17 17 18 17 17 16 15 13 11 10 9 9 9 8 9 12 16 18 20 22 23 23 23 22 22 22 22 23 23 22 20
19 20 20 21 23 23 22 22 22 21 20 19 20 20 20 20 20 20 20 20 18 17 16 15 14 12 12 15 17 19 21 23 24 25 25 24 23 23 22 22 22 21
21 24 24 21 22 23 23 23 22 22 23 25 26 26 26 24 24 24 25 25 23 24 24 21 19 16 13 12 14 17 21 24 26 27 28 26 24 23 22 21 21 21
Wind_Direction
308 304 300 294 289 283 270 258 254 241 230 235 247 252 253 250 243 240 237 231 227 229 231 229 228 228 226 225 222 219 219 216 207 209 220 223 223 221 218 216 218 222
326 326 317 307 302 288 268 259 256 243 238 243 252 260 255 246 241 241 239 238 236 231 228 228 228 227 224 221 218 216 218 218 212 209 217 221 222 221 222 222 222 224
338 331 319 305 295 280 267 265 257 242 240 243 243 252 254 246 243 240 231 232 238 234 227 226 227 226 225 221 219 219 218 216 216 216 217 218 219 220 222 223 222 222
342 322 299 285 281 277 270 265 253 239 236 237 239 247 250 247 249 246 235 230 234 232 225 223 224 223 224 223 221 220 218 219 217 215 215 216 216 219 219 220 221 220
343 325 305 290 288 288 281 270 259 248 239 235 239 243 244 246 247 246 242 236 233 229 222 220 221 221 222 224 224 220 217 218 215 210 215 216 214 217 218 216 217 216
343 333 327 319 308 298 286 275 269 261 248 239 236 235 239 244 241 240 240 235 229 226 222 219 217 218 221 221 221 220 213 210 210 210 214 217 216 220 221 215 215 214
345 340 338 336 326 308 293 280 271 264 254 246 239 234 238 243 238 235 237 232 225 223 223 220 215 214 218 218 218 222 216 206 205 209 210 209 213 219 220 217 215 213
349 348 345 344 337 314 298 288 278 269 254 244 240 235 235 242 242 236 234 230 223 221 221 220 217 214 214 215 215 219 218 207 205 212 211 204 203 207 209 211 211 208
350 350 349 347 340 320 305 294 282 277 262 245 240 237 233 238 242 236 230 227 223 224 224 221 218 216 213 212 210 211 215 213 208 211 210 204 202 201 203 208 208 204
351 350 349 346 341 328 315 302 284 274 270 259 248 240 232 233 240 237 228 224 222 225 227 223 218 215 212 210 209 208 211 215 213 209 208 210 211 208 206 209 208 204
352 351 348 345 342 333 321 309 296 281 273 267 258 247 234 225 230 232 226 223 222 224 226 223 217 214 209 206 205 205 208 215 217 213 213 215 215 213 212 212 210 207
352 351 349 345 341 336 327 316 307 295 283 272 264 259 251 236 227 225 222 220 220 221 223 222 217 213 208 203 202 204 209 214 215 215 216 216 215 215 215 216 215 209
352 351 350 347 342 337 330 322 313 303 291 280 273 269 264 253 238 229 225 222 218 217 220 220 218 214 209 205 203 205 208 210 210 214 217 218 219 219 218 219 216 210
350 349 351 348 345 342 336 329 319 308 296 285 281 276 266 255 243 235 233 228 220 215 218 220 217 214 210 206 204 206 208 209 210 214 218 219 222 220 217 218 216 211
349 350 350 348 347 349 347 341 329 316 305 291 285 283 274 260 247 240 237 234 226 217 217 219 217 214 210 204 203 204 206 208 211 215 217 216 213 209 208 215 216 212
351 351 351 349 348 349 350 349 341 328 317 302 289 286 280 267 251 241 236 234 230 220 215 217 217 215 211 205 201 202 203 207 211 213 214 212 208 204 201 206 210 209
355 353 352 352 350 347 349 353 349 340 329 314 299 291 284 268 249 241 235 231 230 224 218 218 217 216 213 207 203 202 203 205 208 210 211 212 211 208 202 201 205 207
358 355 354 354 353 350 350 354 354 350 341 327 312 302 289 268 249 241 236 231 230 227 223 221 216 213 212 208 204 203 203 205 207 209 212 214 212 209 207 205 205 204
0 359 357 355 355 353 352 355 357 356 351 341 328 315 298 275 256 245 237 235 234 230 225 221 217 213 212 208 205 203 203 205 207 209 212 215 213 207 204 202 200 198
2 2 1 359 357 356 356 358 358 359 359 353 344 334 322 297 266 246 237 235 234 230 226 220 216 214 211 206 204 204 202 202 205 209 211 212 211 207 202 199 198 195
4 4 3 2 1 0 1 2 2 1 3 5 2 357 352 340 296 245 234 230 225 223 223 218 213 211 207 203 202 202 201 200 204 207 206 207 207 203 198 196 195 192
8 7 6 6 5 5 6 6 7 7 6 8 13 16 16 10 6 338 231 217 209 211 214 212 208 205 202 200 199 199 200 199 200 201 199 199 199 194 191 190 187 184
12 11 11 11 10 11 12 11 12 13 13 15 20 27 33 35 36 42 55 139 176 187 191 193 197 195 191 192 194 196 197 194 191 190 187 185 183 182 181 180 178 177
19 18 18 18 17 17 16 17 18 19 21 24 28 32 37 44 53 61 65 78 104 123 128 130 140 156 165 171 179 188 192 190 184 179 174 172 171 171 171 171 172 173
26 27 26 26 26 25 24 23 25 28 32 36 39 41 41 45 55 63 65 66 77 92 103 102 100 111 138 155 165 174 179 181 181 174 166 162 161 162 163 165 167 169
36 39 38 35 34 34 34 34 33 36 41 44 46 48 48 47 50 56 60 57 60 76 88 90 88 94 110 134 153 160 162 167 173 171 164 158 155 155 155 156 159 164
Height
802 802 802 801 801 801 802 803 803 803 801 799 798 799 801 802 804 806 807 809 810 811 814 815 815 816 817 818 820 821 822 823 824 827 828 829 831 833 834 835 836 838
801 801 800 800 800 800 800 801 802 801 799 796 795 797 798 800 801 803 805 807 808 809 810 812 814 815 816 817 818 819 820 821 822 824 826 828 829 830 832 833 835 837
800 800 799 798 798 798 798 799 800 800 798 796 795 795 796 798 799 799 800 802 805 808 808 809 811 814 815 815 816 816 817 819 820 821 823 826 828 828 830 832 833 835
798 798 797 796 796 796 796 797 798 797 797 795 795 794 795 796 797 797 797 798 801 805 806 806 808 811 813 814 815 815 815 817 818 820 821 824 825 826 829 831 832 833
798 796 795 794 794 794 795 795 796 796 795 794 793 793 794 794 795 796 797 798 799 802 804 804 805 806 809 810 812 813 814 815 817 818 819 821 822 824 827 829 830 831
797 795 794 794 793 793 793 793 794 794 794 793 792 792 792 792 793 794 795 796 798 800 801 802 802 804 805 806 808 811 812 813 815 816 817 819 820 822 824 826 827 828
796 794 793 793 792 791 791 791 791 792 792 792 791 790 790 790 791 792 793 794 796 797 798 799 800 801 802 804 807 810 811 811 812 814 815 817 818 820 822 824 825 825
794 793 792 791 790 790 789 789 789 789 789 789 789 788 788 788 789 790 791 792 794 795 796 796 797 798 799 801 804 809 810 810 810 811 813 815 817 818 820 821 822 823
793 792 791 790 789 788 788 787 787 787 787 786 786 786 785 784 785 786 788 790 791 792 793 793 794 795 797 798 800 804 808 809 809 809 811 813 814 816 818 819 820 821
792 790 789 787 787 786 786 785 785 785 785 785 784 784 784 783 783 783 784 787 788 789 790 791 792 793 794 795 797 799 803 806 806 807 809 810 812 813 815 816 818 819
792 790 788 786 785 784 784 783 783 783 783 783 782 781 782 782 782 783 783 785 786 787 788 789 790 791 791 792 794 796 799 802 804 805 806 808 809 811 812 814 816 817
793 791 789 787 785 783 782 782 781 781 780 780 779 779 780 781 781 781 781 782 783 784 785 786 788 789 789 790 792 794 796 799 801 803 804 806 808 809 812 813 814 816
794 792 790 788 786 784 782 780 779 779 778 777 777 777 777 778 779 779 779 780 781 782 782 783 785 787 787 789 790 792 794 796 798 801 802 804 806 807 810 812 813 814
796 793 790 788 786 784 781 779 778 777 776 775 775 774 775 775 777 777 777 778 778 779 780 781 782 784 785 787 788 790 792 794 796 798 800 802 804 805 808 810 811 812
797 794 792 789 787 784 781 778 776 775 774 773 773 773 773 773 774 775 775 776 776 776 777 778 780 781 782 784 786 787 790 792 794 796 799 801 803 804 806 808 809 810
799 795 793 790 787 784 781 778 775 773 772 772 771 771 772 772 772 773 773 773 774 775 774 775 777 779 780 782 783 785 787 790 792 795 797 799 800 802 804 805 807 809
799 796 793 790 787 784 781 778 775 772 771 770 770 770 770 770 770 771 771 771 772 772 772 772 774 776 779 780 782 783 785 787 790 793 795 797 798 800 802 803 805 806
801 797 794 791 788 784 781 778 775 772 770 769 768 768 768 768 768 768 768 768 769 770 770 771 772 774 777 779 780 782 783 785 788 791 793 795 796 798 799 801 803 804
802 799 796 792 789 785 782 779 776 772 770 768 767 767 766 766 766 766 766 766 768 769 769 769 771 773 775 777 779 780 782 784 787 789 791 793 794 796 797 799 801 803
803 801 797 794 791 787 784 781 777 774 772 770 768 767 766 765 765 764 763 764 766 768 768 769 770 771 774 775 777 778 780 782 785 787 790 791 792 794 796 797 799 801
806 803 799 796 793 790 787 783 780 777 774 772 770 768 767 766 765 764 763 762 764 766 768 769 768 769 772 774 775 777 779 781 783 786 788 790 791 793 794 796 798 800
808 805 802 799 796 793 790 786 783 780 777 775 773 771 769 768 766 766 765 764 764 765 767 768 767 768 770 772 773 775 777 779 782 784 786 788 790 792 793 795 797 799
811 808 805 803 800 796 793 790 787 784 781 779 777 775 772 771 769 769 768 766 765 765 766 767 767 768 769 771 773 774 776 778 780 782 785 787 789 791 793 795 797 799
814 812 809 806 804 801 798 795 792 789 786 783 781 779 777 775 774 772 771 770 768 766 766 767 767 768 769 770 772 774 776 777 778 781 784 786 788 790 792 794 796 798
817 815 812 810 808 805 802 800 797 794 791 788 786 783 782 780 778 775 775 775 773 769 767 767 768 769 770 771 772 774 776 777 778 780 783 786 788 790 792 794 796 798
820 817 815 813 811 809 807 804 801 799 796 793 790 788 786 784 783 780 778 779 778 773 768 767 769 771 771 772 774 775 777 778 779 779 781 784 787 789 792 794 796 797